#timestamp,LO_Frequency,Hit,StdDev 
1649714415.6,286047000.6,N
1649714435.4,286046998.9,N
1649714455.3,286046999.6,N
1649714475.1,286046996.8,N
1649714495.9,286046994.9,N
1649714515.7,286046997.2,N
1649714535.5,286046998.8,N
1649714555.4,286047001.1,N
1649714575.2,286047001.2,N
1649714595.0,286046998.1,N
1649714595.9,286046998.1,N
1649714615.8,286046999.3,N
1649714635.6,286046998.5,N
1649714655.5,286046997.0,N
1649714675.3,286047001.1,N
1649714695.1,286046998.5,N
1649714715.9,286046999.1,N
1649714735.7,286047001.1,N
1649714755.5,286047002.2,N
1649714775.4,286047003.6,N
1649714795.2,286047001.3,N
1649714815.1,286047004.9,N
1649714816.0,286047004.9,N
1649714835.8,286047007.4,N
1649714855.6,286047004.5,N
1649714875.5,286047006.7,N
1649714895.3,286047003.9,N
1649714915.1,286047002.3,N
1649714935.9,286047000.5,N
1649714955.7,286046998.5,N
1649714975.6,286046999.9,N
1649714995.4,286047002.5,N
1649715015.2,286046999.7,N
1649715035.1,286047000.0,N
1649715036.0,286047000.0,N
1649715055.8,286047003.9,N
1649715075.6,286047002.5,N
1649715095.5,286047000.2,N
1649715115.3,286047000.0,N
1649715135.2,286046998.8,N
1649715155.9,286046997.1,N
1649715175.7,286046997.4,N
1649715195.6,286046999.6,N
1649715215.4,286046998.0,N
1649715235.2,286046997.4,N
1649715255.1,286046998.5,N
1649715256.0,286046998.5,N
1649715275.8,286047002.3,N
1649715295.7,286047001.6,N
1649715315.5,286047004.9,N
1649715335.3,286047003.6,N
1649715355.2,286047002.6,N
1649715375.9,286047004.3,N
1649715395.7,286047003.2,N
1649715415.6,286047002.5,N
1649715435.4,286047001.9,N
1649715455.3,286047004.1,N
1649715475.1,286047004.5,N
1649715476.0,286047004.5,N
1649715495.8,286047006.0,N
1649715515.7,286047003.0,N
1649715535.5,286047005.3,N
1649715555.3,286047005.6,N
1649715575.2,286047001.8,N
1649715595.0,286047001.6,N
1649715595.9,286047001.6,N
1649715615.8,286047001.5,N
1649715635.6,286047000.2,N
1649715655.4,286046996.7,N
1649715675.3,286046998.2,N
1649715695.1,286047001.5,N
1649715715.8,286047005.3,N
1649715735.7,286047004.8,N
1649715755.5,286047004.2,N
1649715775.4,286046999.7,N
1649715795.2,286047003.9,N
1649715815.0,286047004.7,N
1649715815.9,286047004.7,N
1649715835.8,286047003.5,N
1649715855.6,286047003.8,N
1649715875.4,286047005.4,N
1649715895.3,286047006.3,N
1649715915.1,286047007.6,Y
1649715935.9,286046999.9,P
1649715955.7,286046998.4,N
1649715975.5,286046997.3,N
1649715995.4,286046998.9,N
1649716015.2,286046998.5,N
1649716035.0,286046996.8,N
1649716035.9,286046996.8,N
1649716055.8,286046996.2,N
1649716075.6,286046991.9,Y
1649716095.5,286046997.6,P
1649716115.3,286046998.8,N
1649716135.1,286047000.3,N
1649716155.9,286047002.9,N
1649716175.7,286046996.6,N
1649716195.6,286046997.7,N
1649716215.4,286046999.2,N
1649716235.2,286047000.1,N
1649716255.1,286047004.0,N
1649716256.0,286047004.0,N
1649716275.8,286047002.6,N
1649716295.6,286047000.7,N
1649716315.5,286046997.4,N
1649716335.3,286046998.6,N
1649716355.2,286047002.7,N
1649716375.9,286047002.2,N
1649716395.7,286047003.8,N
1649716415.6,286047000.1,N
1649716435.4,286047003.3,N
1649716455.2,286047003.8,N
1649716475.1,286047003.7,N
1649716476.0,286047003.7,N
1649716495.8,286047001.4,N
1649716515.7,286047000.0,N
1649716535.5,286047000.0,N
1649716555.3,286046994.9,N
1649716575.2,286046996.5,N
1649716595.0,286046997.7,N
1649716595.9,286046997.7,N
1649716615.7,286046998.1,N
1649716635.6,286046997.3,N
1649716655.4,286046999.3,N
1649716675.3,286046998.2,N
1649716695.1,286047002.2,N
1649716696.0,286047002.2,N
1649716715.8,286047005.7,N
1649716735.7,286047005.6,N
1649716755.5,286047001.7,N
1649716775.4,286047001.6,N
1649716795.2,286047002.5,N
1649716815.0,286047005.5,N
1649716815.9,286047005.5,N
1649716835.8,286047003.3,N
1649716855.6,286047001.2,N
1649716875.4,286047000.5,N
1649716895.3,286046998.8,N
1649716915.1,286046995.3,N
1649716935.9,286046993.0,N
1649716955.7,286046990.6,N
1649716975.5,286046990.9,N
1649716995.4,286046992.8,N
1649717015.2,286046990.1,N
1649717035.0,286046990.7,N
1649717035.9,286046990.7,N
1649717055.8,286046990.8,N
1649717075.6,286046990.9,N
1649717095.5,286046994.7,N
1649717115.3,286046992.3,N
1649717135.1,286046993.5,N
1649717155.9,286046993.6,N
1649717175.7,286046989.3,N
1649717195.5,286046988.1,N
1649717215.4,286046984.1,N
1649717235.2,286046982.6,N
1649717255.1,286046983.3,N
1649717256.0,286046983.3,N
1649717275.8,286046981.1,N
1649717295.6,286046979.3,Y
1649717315.5,286046991.1,P
1649717335.3,286046992.8,P
1649717355.2,286046989.2,P
1649717375.9,286046988.7,Y
1649717395.7,286046996.1,P
1649717415.6,286046990.7,P
1649717435.4,286046994.6,N
1649717455.3,286046991.9,Y
1649717475.1,286046999.2,P
1649717476.0,286046999.2,N
1649717495.8,286046993.3,N
1649717515.7,286046995.1,N
1649717535.5,286046997.5,N
1649717555.3,286046997.1,N
1649717575.2,286047000.7,N
1649717595.0,286046999.8,N
1649717595.9,286046999.8,N
1649717615.8,286047002.8,N
1649717635.6,286046999.0,N
1649717655.4,286046996.5,N
1649717675.3,286047001.5,N
1649717695.1,286047001.8,N
1649717715.9,286047002.2,N
1649717735.7,286047000.5,N
1649717755.5,286047002.2,N
1649717775.4,286047000.5,N
1649717795.2,286046996.7,N
1649717815.0,286046996.1,N
1649717815.9,286046996.1,N
1649717835.8,286046993.5,N
1649717855.6,286046997.9,N
1649717875.5,286046998.4,N
1649717895.3,286047000.0,N
1649717915.1,286047004.1,N
1649717935.9,286047004.3,N
1649717955.7,286047001.8,N
1649717975.6,286047002.7,N
1649717995.4,286046998.6,N
